| time (UTC) | temp F | wind direction | speed MPH | gust MPH | rain 1hr in | rain 24hr in | rain mn in | humidity % | barometer mb |
| 20260506152033 | 63 | 346 | 0.0 | 3.0 | 0.00 | 0.00 | 0.00 | 42 | 1016.0 |
| 20260506151050 | 63 | 87 | 0.0 | 3.0 | 0.00 | 0.00 | 0.00 | 42 | 1015.8 |
| 20260506150031 | 62 | 328 | 0.0 | 1.0 | 0.00 | 0.00 | 0.00 | 44 | 1015.8 |
| 20260506145033 | 61 | 0 | 0.0 | 0.0 | 0.00 | 0.00 | 0.00 | 46 | 1015.8 |
| 20260506144033 | 60 | 328 | 0.0 | 3.0 | 0.00 | 0.00 | 0.00 | 50 | 1016.0 |
| 20260506143050 | 59 | 0 | 0.0 | 0.0 | 0.00 | 0.00 | 0.00 | 51 | 1015.9 |
| 20260506142031 | 58 | 70 | 0.0 | 3.0 | 0.00 | 0.00 | 0.00 | 53 | 1015.9 |
| 20260506141050 | 57 | 0 | 0.0 | 0.0 | 0.00 | 0.00 | 0.00 | 57 | 1016.0 |
| 20260506140033 | 56 | 88 | 0.0 | 1.0 | 0.00 | 0.00 | 0.00 | 59 | 1016.1 |
| 20260506135033 | 54 | 82 | 0.0 | 1.0 | 0.00 | 0.00 | 0.00 | 61 | 1016.1 |
| 20260506134033 | 53 | 68 | 0.0 | 3.0 | 0.00 | 0.00 | 0.00 | 64 | 1016.5 |
| 20260506133033 | 51 | 43 | 0.0 | 1.0 | 0.00 | 0.00 | 0.00 | 68 | 1016.2 |
| 20260506132033 | 50 | 57 | 0.0 | 4.0 | 0.00 | 0.00 | 0.00 | 69 | 1016.2 |
| 20260506131033 | 50 | 279 | 1.0 | 6.0 | 0.00 | 0.00 | 0.00 | 71 | 1016.0 |
| 20260506130033 | 50 | 284 | 1.0 | 3.0 | 0.00 | 0.00 | 0.00 | 72 | 1015.8 |
| 20260506125033 | 50 | 285 | 1.0 | 3.0 | 0.00 | 0.00 | 0.00 | 72 | 1015.8 |
| 20260506124031 | 50 | 311 | 0.0 | 3.0 | 0.00 | 0.00 | 0.00 | 71 | 1015.7 |
| 20260506123033 | 51 | 78 | 0.0 | 3.0 | 0.00 | 0.00 | 0.00 | 71 | 1015.5 |
| 20260506122033 | 51 | 0 | 0.0 | 0.0 | 0.00 | 0.00 | 0.00 | 71 | 1015.5 |
| 20260506121033 | 51 | 63 | 0.0 | 3.0 | 0.00 | 0.00 | 0.00 | 70 | 1015.4 |
| 20260506120033 | 52 | 57 | 0.0 | 1.0 | 0.00 | 0.00 | 0.00 | 69 | 1015.0 |
| 20260506115050 | 52 | 0 | 0.0 | 0.0 | 0.00 | 0.00 | 0.00 | 68 | 1015.0 |
| 20260506114031 | 53 | 0 | 0.0 | 0.0 | 0.00 | 0.00 | 0.00 | 67 | 1014.8 |
| 20260506113048 | 53 | 0 | 0.0 | 0.0 | 0.00 | 0.00 | 0.00 | 67 | 1014.6 |
| 20260506112033 | 53 | 0 | 0.0 | 0.0 | 0.00 | 0.00 | 0.00 | 65 | 1014.6 |
| 20260506111033 | 53 | 0 | 0.0 | 0.0 | 0.00 | 0.00 | 0.00 | 63 | 1014.6 |
| 20260506110033 | 53 | 0 | 0.0 | 0.0 | 0.00 | 0.00 | 0.00 | 62 | 1014.6 |
| 20260506105033 | 53 | 0 | 0.0 | 0.0 | 0.00 | 0.00 | 0.00 | 60 | 1014.6 |
| 20260506104050 | 53 | 0 | 0.0 | 0.0 | 0.00 | 0.00 | 0.00 | 59 | 1014.4 |
| 20260506103031 | 54 | 0 | 0.0 | 0.0 | 0.00 | 0.00 | 0.00 | 59 | 1014.5 |
| 20260506102034 | 53 | 0 | 0.0 | 0.0 | 0.00 | 0.00 | 0.00 | 59 | 1014.5 |
| 20260506101033 | 53 | 32 | 0.0 | 1.0 | 0.00 | 0.00 | 0.00 | 60 | 1014.3 |
| 20260506100033 | 54 | 0 | 0.0 | 0.0 | 0.00 | 0.00 | 0.00 | 61 | 1014.1 |
| 20260506095033 | 54 | 38 | 0.0 | 1.0 | 0.00 | 0.00 | 0.00 | 59 | 1014.1 |
| 20260506094033 | 55 | 41 | 0.0 | 1.0 | 0.00 | 0.00 | 0.00 | 59 | 1014.0 |
| 20260506093033 | 55 | 0 | 0.0 | 0.0 | 0.00 | 0.00 | 0.00 | 59 | 1014.1 |
| 20260506092031 | 55 | 0 | 0.0 | 0.0 | 0.00 | 0.00 | 0.00 | 57 | 1014.1 |
| 20260506091033 | 56 | 0 | 0.0 | 0.0 | 0.00 | 0.00 | 0.00 | 56 | 1014.1 |
| 20260506090033 | 56 | 41 | 0.0 | 1.0 | 0.00 | 0.00 | 0.00 | 55 | 1014.1 |
| 20260506085050 | 56 | 0 | 0.0 | 0.0 | 0.00 | 0.00 | 0.00 | 54 | 1014.1 |
| 20260506084050 | 56 | 0 | 0.0 | 0.0 | 0.00 | 0.00 | 0.00 | 54 | 1014.2 |
| 20260506083033 | 57 | 0 | 0.0 | 0.0 | 0.00 | 0.00 | 0.00 | 54 | 1014.0 |
| 20260506082107 | 57 | 0 | 0.0 | 0.0 | 0.00 | 0.00 | 0.00 | 54 | 1014.0 |
| 20260506081031 | 57 | 0 | 0.0 | 0.0 | 0.00 | 0.00 | 0.00 | 54 | 1014.3 |
| 20260506073050 | 58 | 311 | 0.0 | 3.0 | 0.00 | 0.00 | 0.00 | 52 | 1014.4 |
| 20260506072033 | 58 | 0 | 0.0 | 0.0 | 0.00 | 0.00 | 0.00 | 51 | 1014.4 |
| 20260506071033 | 59 | 0 | 0.0 | 0.0 | 0.00 | 0.17 | 0.00 | 49 | 1014.2 |
| 20260506062033 | 60 | 305 | 1.0 | 3.0 | 0.00 | 0.17 | 0.00 | 45 | 1014.3 |
| 20260506061033 | 61 | 299 | 0.0 | 3.0 | 0.00 | 0.17 | 0.00 | 43 | 1014.1 |
| 20260506051050 | 60 | 0 | 0.0 | 0.0 | 0.00 | 0.17 | 0.00 | 46 | 1014.1 |
| 20260506045031 | 61 | 0 | 0.0 | 0.0 | 0.00 | 0.17 | 0.00 | 44 | 1013.7 |
| 20260506044031 | 62 | 0 | 0.0 | 0.0 | 0.00 | 0.17 | 0.00 | 43 | 1013.5 |
| 20260506043033 | 63 | 0 | 0.0 | 0.0 | 0.00 | 0.17 | 0.00 | 41 | 1013.2 |
| 20260506042033 | 63 | 0 | 0.0 | 0.0 | 0.00 | 0.17 | 0.00 | 41 | 1013.2 |
| 20260506041050 | 63 | 0 | 0.0 | 0.0 | 0.00 | 0.17 | 0.00 | 41 | 1013.0 |
| 20260506040033 | 64 | 274 | 0.0 | 1.0 | 0.00 | 0.17 | 0.00 | 41 | 1012.4 |
| 20260506035050 | 65 | 284 | 1.0 | 6.0 | 0.00 | 0.17 | 0.00 | 39 | 1012.4 |
| 20260506034033 | 65 | 300 | 3.0 | 7.0 | 0.00 | 0.17 | 0.00 | 39 | 1012.3 |
| 20260506033048 | 65 | 300 | 3.0 | 7.0 | 0.00 | 0.17 | 0.00 | 39 | 1012.1 |
| 20260506032033 | 65 | 305 | 2.0 | 7.0 | 0.00 | 0.17 | 0.00 | 38 | 1012.1 |
| 20260506031033 | 66 | 294 | 2.0 | 7.0 | 0.00 | 0.17 | 0.00 | 37 | 1012.0 |
| 20260506030033 | 66 | 271 | 4.0 | 7.0 | 0.00 | 0.17 | 0.00 | 36 | 1011.9 |
| 20260506025033 | 66 | 285 | 4.0 | 7.0 | 0.00 | 0.17 | 0.00 | 36 | 1011.9 |
| 20260506024033 | 67 | 89 | 5.0 | 12.0 | 0.00 | 0.17 | 0.00 | 35 | 1011.4 |
| 20260506023031 | 67 | 293 | 6.0 | 13.0 | 0.00 | 0.17 | 0.00 | 34 | 1011.4 |
| 20260506022033 | 67 | 300 | 3.0 | 10.0 | 0.00 | 0.17 | 0.00 | 33 | 1011.4 |
| 20260506021033 | 68 | 293 | 5.0 | 9.0 | 0.00 | 0.17 | 0.00 | 32 | 1010.9 |
| 20260506020050 | 68 | 305 | 8.0 | 13.0 | 0.00 | 0.17 | 0.00 | 31 | 1010.7 |
| 20260506015033 | 69 | 290 | 7.0 | 13.0 | 0.00 | 0.17 | 0.00 | 30 | 1010.7 |
| 20260506014033 | 69 | 279 | 8.0 | 15.0 | 0.00 | 0.17 | 0.00 | 29 | 1010.7 |
| 20260506013033 | 69 | 289 | 9.0 | 18.0 | 0.00 | 0.17 | 0.00 | 29 | 1010.6 |
| 20260506012031 | 70 | 280 | 7.0 | 13.0 | 0.00 | 0.17 | 0.00 | 29 | 1010.6 |
| 20260506011033 | 70 | 282 | 11.0 | 21.0 | 0.00 | 0.17 | 0.00 | 30 | 1010.5 |
| 20260506010033 | 71 | 296 | 11.0 | 16.0 | 0.00 | 0.17 | 0.00 | 30 | 1010.1 |
| 20260506005033 | 71 | 307 | 9.0 | 19.0 | 0.00 | 0.17 | 0.00 | 29 | 1010.1 |
| 20260506004050 | 72 | 304 | 9.0 | 18.0 | 0.00 | 0.17 | 0.00 | 28 | 1009.9 |
| 20260506003050 | 72 | 296 | 12.0 | 19.0 | 0.00 | 0.17 | 0.00 | 28 | 1009.8 |
| 20260506002033 | 72 | 270 | 13.0 | 19.0 | 0.00 | 0.17 | 0.00 | 27 | 1009.8 |
| 20260506001031 | 73 | 305 | 11.0 | 19.0 | 0.00 | 0.17 | 0.00 | 28 | 1009.7 |
| 20260506000033 | 73 | 283 | 10.0 | 22.0 | 0.00 | 0.17 | 0.00 | 28 | 1009.3 |
| 20260505235050 | 74 | 292 | 10.0 | 27.0 | 0.00 | 0.17 | 0.00 | 27 | 1009.3 |
| 20260505234050 | 73 | 293 | 9.0 | 16.0 | 0.00 | 0.17 | 0.00 | 27 | 1009.3 |
| 20260505233048 | 73 | 292 | 9.0 | 18.0 | 0.00 | 0.17 | 0.00 | 28 | 1009.3 |
| 20260505232033 | 73 | 280 | 9.0 | 22.0 | 0.00 | 0.17 | 0.00 | 29 | 1009.3 |
| 20260505231033 | 73 | 278 | 10.0 | 28.0 | 0.00 | 0.17 | 0.00 | 29 | 1009.6 |
| 20260505230031 | 73 | 303 | 7.0 | 15.0 | 0.00 | 0.17 | 0.00 | 29 | 1009.8 |
| 20260505225033 | 73 | 279 | 8.0 | 18.0 | 0.00 | 0.17 | 0.00 | 30 | 1009.8 |
| 20260505224033 | 73 | 283 | 11.0 | 18.0 | 0.00 | 0.17 | 0.00 | 30 | 1009.8 |
| 20260505223033 | 72 | 280 | 6.0 | 10.0 | 0.00 | 0.17 | 0.00 | 31 | 1009.9 |
| 20260505222033 | 72 | 293 | 7.0 | 15.0 | 0.00 | 0.17 | 0.00 | 31 | 1009.9 |
| 20260505221033 | 72 | 290 | 7.0 | 13.0 | 0.00 | 0.17 | 0.00 | 32 | 1010.0 |
| 20260505220033 | 72 | 300 | 7.0 | 15.0 | 0.00 | 0.17 | 0.00 | 32 | 1010.2 |
| 20260505215031 | 72 | 283 | 5.0 | 10.0 | 0.00 | 0.17 | 0.00 | 33 | 1010.2 |
| 20260505214033 | 72 | 271 | 5.0 | 13.0 | 0.00 | 0.17 | 0.00 | 35 | 1010.3 |
| 20260505213050 | 71 | 279 | 9.0 | 19.0 | 0.00 | 0.17 | 0.00 | 38 | 1010.3 |
| 20260505212033 | 71 | 294 | 11.0 | 22.0 | 0.00 | 0.17 | 0.00 | 41 | 1010.3 |
| 20260505211107 | 70 | 293 | 11.0 | 19.0 | 0.00 | 0.17 | 0.00 | 43 | 1010.6 |
| 20260505210033 | 69 | 285 | 7.0 | 16.0 | 0.00 | 0.17 | 0.00 | 46 | 1011.0 |
| 20260505205031 | 69 | 298 | 7.0 | 16.0 | 0.00 | 0.17 | 0.00 | 46 | 1011.0 |
| 20260505204031 | 70 | 310 | 7.0 | 16.0 | 0.00 | 0.17 | 0.00 | 45 | 1010.8 |
| 20260505203033 | 71 | 305 | 5.0 | 12.0 | 0.00 | 0.17 | 0.00 | 43 | 1010.8 |
| 20260505202108 | 71 | 288 | 10.0 | 15.0 | 0.00 | 0.17 | 0.00 | 44 | 1010.8 |
| 20260505201033 | 70 | 288 | 4.0 | 10.0 | 0.00 | 0.17 | 0.00 | 47 | 1010.9 |
| 20260505200033 | 70 | 290 | 7.0 | 16.0 | 0.00 | 0.17 | 0.00 | 49 | 1011.1 |
| 20260505195033 | 69 | 284 | 8.0 | 15.0 | 0.00 | 0.17 | 0.00 | 52 | 1011.1 |
| 20260505194031 | 69 | 294 | 4.0 | 9.0 | 0.00 | 0.17 | 0.00 | 54 | 1011.4 |
| 20260505193031 | 68 | 297 | 5.0 | 13.0 | 0.00 | 0.17 | 0.00 | 55 | 1011.5 |
| 20260505192033 | 68 | 305 | 2.0 | 7.0 | 0.00 | 0.17 | 0.00 | 55 | 1011.5 |
| 20260505191033 | 68 | 290 | 3.0 | 9.0 | 0.00 | 0.17 | 0.00 | 55 | 1011.6 |
| 20260505190033 | 67 | 47 | 2.0 | 9.0 | 0.00 | 0.17 | 0.00 | 57 | 1012.0 |
| 20260505185107 | 66 | 16 | 0.0 | 3.0 | 0.00 | 0.17 | 0.00 | 59 | 1012.0 |
| 20260505184032 | 65 | 284 | 0.0 | 6.0 | 0.00 | 0.17 | 0.00 | 60 | 1012.5 |
| 20260505183031 | 65 | 52 | 1.0 | 7.0 | 0.00 | 0.17 | 0.00 | 61 | 1012.4 |
| 20260505182033 | 65 | 18 | 1.0 | 4.0 | 0.00 | 0.17 | 0.00 | 62 | 1012.4 |
| 20260505181033 | 64 | 48 | 0.0 | 3.0 | 0.00 | 0.17 | 0.00 | 63 | 1012.9 |
| 20260505180033 | 64 | 324 | 1.0 | 6.0 | 0.00 | 0.17 | 0.00 | 63 | 1013.0 |
| 20260505175050 | 63 | 73 | 0.0 | 6.0 | 0.00 | 0.17 | 0.00 | 64 | 1013.0 |
| 20260505174033 | 63 | 273 | 1.0 | 6.0 | 0.00 | 0.17 | 0.00 | 64 | 1013.0 |
| 20260505173033 | 63 | 277 | 0.0 | 4.0 | 0.00 | 0.17 | 0.00 | 64 | 1013.0 |
| 20260505172031 | 63 | 60 | 0.0 | 6.0 | 0.00 | 0.17 | 0.00 | 65 | 1013.0 |
| 20260505171033 | 63 | 67 | 0.0 | 3.0 | 0.00 | 0.17 | 0.00 | 65 | 1013.1 |
| 20260505170033 | 62 | 0 | 0.0 | 0.0 | 0.00 | 0.17 | 0.00 | 66 | 1013.0 |
| 20260505165033 | 62 | 292 | 2.0 | 7.0 | 0.00 | 0.17 | 0.00 | 67 | 1013.0 |
| 20260505164033 | 62 | 287 | 3.0 | 7.0 | 0.00 | 0.17 | 0.00 | 68 | 1012.8 |
| 20260505163033 | 61 | 299 | 3.0 | 9.0 | 0.00 | 0.17 | 0.00 | 69 | 1013.0 |
| 20260505162050 | 61 | 283 | 5.0 | 10.0 | 0.00 | 0.17 | 0.00 | 72 | 1013.0 |
| 20260505161031 | 61 | 282 | 2.0 | 7.0 | 0.00 | 0.17 | 0.00 | 75 | 1013.0 |
| 20260505153033 | 59 | 271 | 3.0 | 7.0 | 0.00 | 0.17 | 0.00 | 83 | 1012.7 |